Retour au catalogue

ARIANE 1 DEB

ActifHEO
NORAD 40780·DEBRIS·🇫🇷 France

Lancé Dec 24, 1979 depuis Guiana Space Centre

Loading…

Prochains Passages (prochaines 24 heures)

TLE

FraisSource: Space-Track

Époque: Sep 6, 2026, 03:46 UTC

1 40780U 79104AH  26249.15731022 -.00000054  00000-0  33747-4 0  9992
2 40780  19.2003 206.3584 5912890 170.6790 208.9641  3.90296258333977

Suivez ARIANE 1 DEB en temps réel avec AllMySat

Download on the App Store